This is the latest recevied weather packets stored in our database for station/object SQ5LTL-2. If no packets are shown the sender has not sent any weather packets the latest 10 day(s).
| Time | Temp. | Humidity | Pressure | Rain* | Wind** | Luminosity | Snow |
|---|---|---|---|---|---|---|---|
| 1778126122 | 13.33° C | 92% | 1008.3 hPa | 0 mm | - | 29 W/m² | - |
| 1778125819 | 13.33° C | 92% | 1008.2 hPa | 0 mm | - | 27 W/m² | - |
| 1778125518 | 12.78° C | 93% | 1008.3 hPa | 0 mm | - | 24 W/m² | - |
| 1778125217 | 12.78° C | 93% | 1008.3 hPa | 0 mm | - | 21 W/m² | - |
| 1778124936 | 12.78° C | 93% | 1008.1 hPa | 0 mm | - | 18 W/m² | - |
| 1778124634 | 12.78° C | 95% | 1008.2 hPa | 0 mm | - | 13 W/m² | - |
| 1778124332 | 12.78° C | 96% | 1008.2 hPa | 0 mm | - | 10 W/m² | - |
| 1778124031 | 12.22° C | 96% | 1008.2 hPa | 0 mm | - | 8 W/m² | - |
| 1778123729 | 12.22° C | 95% | 1008.1 hPa | 0 mm | - | 7 W/m² | - |
| 1778123427 | 12.22° C | 95% | 1008.2 hPa | 0 mm | - | 5 W/m² | - |
| 1778123126 | 12.22° C | 95% | 1008.1 hPa | 0 mm | - | 3 W/m² | - |
| 1778122824 | 12.22° C | 94% | 1008.1 hPa | 0 mm | - | 2 W/m² | - |
| 1778122523 | 12.78° C | 93% | 1008.2 hPa | 0 mm | - | 2 W/m² | - |
| 1778122221 | 12.78° C | 93% | 1008.1 hPa | 0 mm | - | 1 W/m² | - |
| 1778121920 | 13.33° C | 93% | 1008.1 hPa | 0 mm | - | 1 W/m² | - |
| 1778121619 | 13.33° C | 92% | 1008.2 hPa | 0 mm | - | 0 W/m² | - |
| 1778121318 | 13.33° C | 92% | 1008 hPa | 0 mm | - | 0 W/m² | - |
| 1778121015 | 13.89° C | 91% | 1008 hPa | 0 mm | - | 0 W/m² | - |
| 1778120735 | 13.89° C | 91% | 1007.9 hPa | 0 mm | - | 0 W/m² | - |
| 1778120433 | 13.33° C | 91% | 1007.6 hPa | 0 mm | - | 0 W/m² | - |
| 1778120131 | 13.33° C | 92% | 1007.7 hPa | 0 mm | - | 0 W/m² | - |
| 1778119830 | 13.33° C | 92% | 1007.8 hPa | 0 mm | - | 0 W/m² | - |
| 1778119529 | 13.33° C | 92% | 1007.7 hPa | 0 mm | - | 0 W/m² | - |
| 1778119227 | 13.33° C | 92% | 1007.7 hPa | 0 mm | - | 0 W/m² | - |
| 1778118926 | 13.33° C | 92% | 1007.7 hPa | 0 mm | - | 0 W/m² | - |
* Rain latest hour (hover to see other rain measurements)
** Current wind speed in m/s (hover to see current wind gust speed)